Regional Weather Roundup
Issued by NWS Boston, MA

Current Version | Previous Version | Text Only | Print | Product List | Glossary Off
Versions: 1 2 3 4 5 6 7 8 9 10 11 12 13 14 15 16 17 18 19 20 21 22 23 24 25 26 27 28
000 ASUS41 KBOX 180910 RWRBOX REGIONAL WEATHER ROUNDUP NATIONAL WEATHER SERVICE TAUNTON MA 500 AM EDT FRI AUG 18 2017 NOTE: "FAIR" INDICATES FEW OR NO CLOUDS BELOW 12,000 FEET WITH NO SIGNIFICANT WEATHER AND/OR OBSTRUCTIONS TO VISIBILITY. MAZALL-181000- EASTERN MASSACHUSETTS CITY SKY/WX TMP DP RH WIND PRES REMARKS BOSTON MOCLDY 65 59 81 SE3 29.96F BEVERLY CLOUDY 62 59 90 SE5 29.95F LAWRENCE PTCLDY 68 58 70 CALM 29.97F BEDFORD CLOUDY 66 56 70 CALM 29.94F BLUE HILL N/A 64 59 83 S9 29.96F NORWOOD CLOUDY 64 60 87 CALM 29.95F MARSHFIELD MOCLDY 66 64 94 CALM 29.96F PLYMOUTH CLOUDY 66 61 84 SE3 29.97F TAUNTON CLOUDY 64 61 90 SE3 29.95F NEW BEDFORD CLOUDY 62 60 93 CALM 29.96F $$ MAZALL-181000- CAPE COD AND THE ISLANDS CITY SKY/WX TMP DP RH WIND PRES REMARKS FALMOUTH CLOUDY 64 63 94 CALM 29.99F HYANNIS CLOUDY 68 60 75 S5 29.97S CHATHAM CLOUDY 67 65 93 S5 29.99F PROVINCETOWN CLOUDY 67 62 84 S6 29.98F NANTUCKET PTCLDY 64 64 100 S7 29.99F MARTHAS VNYRD PTCLDY 64 62 93 S6 29.98S $$ MAZALL-181000- CENTRAL AND WESTERN MASSACHUSETTS CITY SKY/WX TMP DP RH WIND PRES REMARKS WORCESTER CLOUDY 64 57 78 S7 29.97S FITCHBURG CLOUDY 67 59 75 CALM 29.96S ORANGE CLOUDY 63 60 90 CALM 29.94F SPRINGFIELD CLOUDY 67 59 77 CALM 29.93S WESTFIELD CLOUDY 67 62 84 SE3 29.93F NORTH ADAMS CLOUDY 69 60 73 SE5 29.90F PITTSFIELD CLOUDY 65 60 84 VRB3 29.92F $$ RIZALL-181000- RHODE ISLAND CITY SKY/WX TMP DP RH WIND PRES REMARKS PROVIDENCE CLOUDY 67 65 93 CALM 29.97F NEWPORT CLOUDY 68 67 96 S6 29.96F BLOCK ISLAND CLOUDY 70 69 97 S10 29.96F WESTERLY CLOUDY 68 65 90 CALM 29.96F $$ CTZALL-181000- CONNECTICUT CITY SKY/WX TMP DP RH WIND PRES REMARKS BRADLEY INTL CLOUDY 69 64 84 S6 29.94S HARTFORD CLOUDY 70 66 87 SE5 29.93S BRIDGEPORT CLOUDY 74 71 91 SE8 29.92F DANBURY MOCLDY 72 70 93 SE6 29.93F FOG GROTON CLOUDY 70 67 90 SE6 29.95S NEW HAVEN CLOUDY 74 71 91 SE7 29.93F CHESTER NOT AVBL MERIDEN CLOUDY 71 68 90 S5 29.93S WILLIMANTIC CLOUDY 66 63 90 CALM 29.96S OXFORD CLOUDY 69 69 100 SE9 29.95F FOG $$ MEZ002-015-021-024-NHZ003-005-008-011-012-014-VTZ005-008-181000- NORTHERN NEW ENGLAND CITY SKY/WX TMP DP RH WIND PRES REMARKS PORTLAND ME CLOUDY 61 54 77 VRB3 29.97F BANGOR ME MOCLDY 51 48 89 CALM 29.99S CONCORD NH CLOUDY 61 57 87 CALM 29.95F MANCHESTER NH CLOUDY 65 55 70 NE3 29.93F NASHUA NH CLOUDY 64 60 87 CALM 29.95F PORTSMOUTH NH CLOUDY 65 56 72 NE5 29.93F JAFFREY NH CLOUDY 63 60 90 CALM 29.96F KEENE NH N/A N/A N/A N/A MISG N/A BURLINGTON VT CLOUDY 69 55 60 SE7 29.84F MT. WASHINGTON LGT RAIN 45 43 93 SW29G37 N/A $$ NYZ052-076-181000- EASTERN NEW YORK CITY SKY/WX TMP DP RH WIND PRES REMARKS ALBANY CLOUDY 72 63 73 S12G21 29.85F NEW YORK CITY CLOUDY 76 73 91 S8 29.89F $$ ANZALL-181000- MARINE OBSERVATIONS STATION/POSITION TIME TEMP WIND PRES VSBY WAVE AIR SEA DIR/SP/G HT/PER (UTC) (F) (DEG/KT/KT) (MB) (MI) (FT/S) BOSTON BUOY 0850 66 68 170/ 6/ 8 1014.3F 1/10 BUZZARDS BAY 0800 68 150/ 8/ 8 1015.6F NANTUCKET SOUND 0850 69 71 180/ 10/ 12 1015.2F 0 MASS BAY-STELLWA 0804 67 66 220/ 6/ 8 1014.3F 1/ 3 ISLE OF SHOALS 0800 69 40/ 9/ 9 1014.3F S OF BLOCK IS NOT AVBL $$ ......................KEY......................... SKY/WX - SKY CONDITION/PRESENT WEATHER TMP - TEMPERATURE IN FAHRENHEIT DWPT - DEWPOINT IN FAHRENHEIT RH - RELATIVE HUMIDITY IN PERCENT WIND - DIRECTION AND SPEED IN MPH PRES - MEAN SEA LEVEL PRESSURE IN INCHES OF HG WCI - WIND CHILL INDEX VSB - VISIBILITY IN MILES HX - HEAT INDEX TC - TEMPERATURE IN CELSIUS VRB - VARIABLE WIND DIRECTION N/A - NOT AVAILABLE

USA.gov is the U.S. government's official web portal to all federal, state and local government web resources and services.